Dubuque, IA

9:59 PM CDT on July 26, 2017 (GMT -0500)
Dubuque Regional

Weather History for KDBQ - January, 1998

Change the Weather History Date:

Thursday, January 1, 1998

  Actual Average Record
Temperature  
Mean Temperature 26 °F 19 °F  
Max Temperature 39 °F 27 °F 63 °F (1897)
Min Temperature 12 °F 12 °F -15 °F (1974)
Degree Days  
Heating Degree Days 40 46  
Month to date heating degree days 46  
Since 1 July heating degree days 2856  
Cooling Degree Days 0 0  
Month to date cooling degree days 0  
Year to date cooling degree days 0  
Moisture  
Dew Point 25 °F    
Average Humidity 76    
Maximum Humidity 89    
Minimum Humidity 63    
Precipitation  
Precipitation 0.00 in 0.04 in 2.58 in (1876)
Month to date precipitation 0.04  
Year to date precipitation 0.04  
Snow  
Snow 0.00 in 0.30 in - ()
Month to date snowfall 0.3  
Since 1 July snowfall 14.9  
Snow Depth -    
Sea Level Pressure  
Sea Level Pressure 29.92 in    
Wind  
Wind Speed 17 mph (SSW)    
Max Wind Speed 25 mph    
Max Gust Speed 31 mph    
Visibility 10 miles    
Events Snow    
T = Trace of Precipitation, MM = Missing Value Source: NWS Daily Summary

Daily Weather History Graph

Daily Weather History Graph

Search for Another Location

Airport or City:

Trip Planner

Search our weather history database for the weather conditions in past years. The results will help you decide how hot, cold, wet, or windy it might be!

Date:

Astronomy

Jan. 01, 1998 Rise Set
Actual Time 7:32 AM CST 4:40 PM CST
Civil Twilight 7:00 AM CST 5:12 PM CST
Nautical Twilight 6:25 AM CST 5:48 PM CST
Astronomical Twilight 5:50 AM CST 6:22 PM CST
Moon 9:32 AM CST (1/1) 8:21 PM CST (1/1)
Length of Visible Light 10h 12m
Length of Day
9h 08m
Waxing Crescent, 11% of the Moon is Illuminated
Jan 1
Waxing Crescent
Jan 5
First Quarter
Jan 12
Full
Jan 20
Last Quarter
Jan 28
New

Hourly Weather History & Observations

Time (CST) Temp. Windchill Dew Point Humidity Pressure Visibility Wind Dir Wind Speed Gust Speed Precip Events Conditions
12:55 AM 12.9 °F -4.4 °F 7.0 °F 77% 30.10 in 10.0 mi South 18.4 mph - N/A   Clear
1:55 AM 16.0 °F -0.9 °F 10.9 °F 81% 30.05 in 10.0 mi South 19.6 mph - N/A   Clear
2:55 AM 19.0 °F 3.6 °F 14.0 °F 81% 30.03 in 10.0 mi South 18.4 mph - N/A   Clear
3:55 AM 21.0 °F 6.2 °F 16.0 °F 81% 29.98 in 10.0 mi SSW 18.4 mph - N/A   Clear
4:55 AM 24.1 °F 10.6 °F 18.0 °F 77% 29.94 in 10.0 mi South 17.3 mph - N/A   Clear
5:55 AM 26.1 °F 12.7 °F 21.0 °F 81% 29.92 in 10.0 mi SSW 18.4 mph - N/A   Clear
6:55 AM 30.0 °F 17.9 °F 24.1 °F 79% 29.90 in 10.0 mi SSW 18.4 mph - N/A   Clear
7:55 AM 30.9 °F 18.4 °F 24.1 °F 76% 29.88 in 10.0 mi SSW 20.7 mph - N/A   Clear
8:55 AM 32.0 °F 21.6 °F 25.0 °F 75% 29.90 in 10.0 mi SSW 15.0 mph 23.0 mph N/A   Clear
9:55 AM 35.1 °F 24.5 °F 27.0 °F 72% 29.88 in 10.0 mi SW 18.4 mph 24.2 mph 0.00 in Snow Light Snow
10:55 AM 37.9 °F 26.6 °F 27.0 °F 65% 29.86 in 10.0 mi SW 25.3 mph - 0.00 in   Clear
11:55 AM 39.0 °F 28.5 °F 28.0 °F 65% 29.84 in 10.0 mi SW 23.0 mph 31.1 mph N/A   Clear
12:55 PM 39.9 °F 31.8 °F 28.0 °F 63% 29.86 in 10.0 mi SW 15.0 mph - N/A   Clear
1:55 PM 39.9 °F 30.5 °F 28.0 °F 63% 29.86 in 10.0 mi SW 19.6 mph - N/A   Clear
2:55 PM 39.9 °F 31.4 °F 28.9 °F 65% 29.85 in 10.0 mi SW 16.1 mph 26.5 mph N/A   Clear
3:55 PM 39.0 °F 30.6 °F 28.9 °F 67% 29.88 in 10.0 mi SW 15.0 mph - N/A   Clear
4:55 PM 37.9 °F 28.2 °F 28.9 °F 70% 29.88 in 10.0 mi SW 18.4 mph - N/A   Clear
5:55 PM 36.0 °F 26.7 °F 28.9 °F 76% 29.92 in 10.0 mi SW 15.0 mph - N/A   Clear
6:55 PM 35.1 °F 26.4 °F 28.9 °F 78% 29.92 in 10.0 mi SW 12.7 mph - N/A   Clear
7:55 PM 35.1 °F 26.9 °F 30.0 °F 82% 29.92 in 10.0 mi SSW 11.5 mph - N/A   Clear
8:55 PM 33.1 °F 25.5 °F 28.9 °F 85% 29.93 in 10.0 mi SSW 9.2 mph - N/A   Clear
9:55 PM 34.0 °F 26.6 °F 28.9 °F 82% 29.94 in 10.0 mi SW 9.2 mph - N/A   Clear
10:55 PM 34.0 °F 25.5 °F 30.0 °F 85% 29.93 in 10.0 mi SW 11.5 mph - N/A   Clear
11:55 PM 34.0 °F 26.6 °F 30.9 °F 89% 29.94 in 10.0 mi SSW 9.2 mph - N/A   Clear